[[{"header":{"parameterUnit":"m.s-1","parameterCategory":1,"la1":30.2991,"la2":30.254,"lo1":-89.0895,"lo2":-89.0444,"dy":0.0017,"dx":0.0017,"nx":28,"ny":28,"refTime":"2025-12-17T09:00:00:Z","depth":0,"parameterNumber":2,"parameterNumberName":"U-component_of_WINDS"},"data":[0,0,0,0,0,0,0,0,0,0,0,0,0,0,0,0,0,0,0,0,0,0,0,0,0,0,0,0,0,0,0,0,0,0,0,0,0,0,0,0,0,0,0,0,0,0,0,0,0,0,0,0,0,0,0,0,0,0,-3.7917,-3.7918,0,-3.8009,-3.801,-3.8011,-3.7895,-3.7891,-3.7887,-3.7883,-3.7983,-3.799,-3.7996,0,0,0,0,0,0,0,0,0,0,0,0,0,-3.7649,-3.7655,-3.7917,-3.7918,-3.7919,-3.8008,-3.801,-3.8011,-3.7896,-3.7891,-3.7886,-3.7881,-3.7981,-3.7989,-3.7997,0,0,0,0,0,0,0,0,0,0,0,0,0,-3.7756,-3.7656,-3.7917,-3.7873,-3.7869,-3.8008,-3.801,-3.8011,-3.7897,-3.7891,-3.7884,-3.7879,-3.7979,-3.7988,-3.7998,-3.8187,0,0,-3.8028,-3.8033,0,0,0,0,0,0,0,0,-3.775,-3.7766,-3.7878,-3.7876,-3.7873,-3.7934,-3.7952,-3.807,-3.7899,-3.7887,-3.7883,-3.7875,-3.7972,-3.7982,-3.8014,-3.8191,-3.8195,-3.8029,-3.8035,-3.804,-3.8042,0,0,0,0,0,0,0,-3.7743,-3.7761,-3.7953,-3.788,-3.7877,-3.785,-3.7858,-3.7974,-3.7965,-3.7887,-3.7879,-3.7891,-3.797,-3.8005,-3.8015,-3.8197,-3.8029,-3.8038,-3.8044,-3.8048,-3.8536,-3.8542,0,0,0,0,0,0,-3.774,-3.7756,-3.795,-3.7956,-3.7794,-3.786,-3.7869,-3.7921,-3.7963,-3.7963,-3.7897,-3.7886,-3.7991,-3.8004,-3.8018,-3.8244,-3.8039,-3.8049,-3.8054,-3.8529,-3.8537,-3.8545,0,0,0,0,0,0,-3.7734,-3.7758,-3.7947,-3.7854,-3.7876,-3.7872,-3.793,-3.7926,-3.796,-3.797,-3.7968,-3.7933,-3.7986,-3.8004,-3.8146,-3.8245,-3.8053,-3.8062,-3.8521,-3.8531,-3.8541,-3.8695,0,0,0,0,0,0,-3.7727,-3.7757,-3.7827,-3.7856,-3.7881,-3.8071,-3.7936,-3.7932,-3.7977,-3.7964,-3.8004,-3.8004,-3.7983,-3.8131,-3.8155,-3.8256,-3.807,-3.8512,-3.8525,-3.8538,-3.8681,-3.8709,-3.8733,0,0,0,0,0,-3.7718,-3.7868,-3.7831,-3.7855,-3.7968,-3.8077,-3.8091,-3.8061,-3.7985,-3.8057,-3.8063,-3.8003,-3.823,-3.8147,-3.8173,-3.8278,-3.8505,-3.8522,-3.8537,-3.8669,-3.8704,-3.8733,0,0,0,0,0,0,-3.7853,-3.7871,-3.783,-3.7993,-3.8034,-3.8057,-3.8147,-3.8099,-3.8164,-3.8149,-3.811,-3.812,-3.8271,-3.8288,-3.8195,-3.8463,-3.8355,-3.8377,-3.8447,-3.848,-3.8506,-3.85,-3.8078,0,0,0,0,0,-3.7901,-3.7985,-3.7997,-3.814,-3.8162,-3.8151,-3.8197,-3.817,-3.8212,-3.823,-3.8246,-3.8291,-3.8372,-3.8426,-3.8502,-3.8682,-3.869,-3.8767,-3.8793,-3.8815,-3.8835,-3.8934,-3.8969,-3.8597,-3.8597,-3.8596,0,0,-3.8002,-3.8022,-3.8079,-3.8168,-3.8196,-3.8287,-3.8167,-3.8267,-3.8335,-3.8245,-3.838,-3.8393,-3.8441,-3.8603,-3.8675,-3.8622,-3.8939,-3.8835,-3.8852,-3.8861,-3.8954,-3.8989,-3.902,-3.8607,-3.8605,-3.8604,0,0,-3.8234,-3.8256,-3.8379,-3.8409,-3.8453,-3.8445,-3.8474,-3.8505,-3.851,-3.8643,-3.8578,-3.8659,-3.8799,-3.8836,-3.8874,-3.9119,-3.9068,-3.9145,-3.9284,-3.9381,-3.941,-3.9436,-3.9526,-3.9559,-3.9164,-3.9165,-3.9165,0,-3.8355,-3.8487,-3.8448,-3.8554,-3.8596,-3.8516,-3.8642,-3.8674,-3.8742,-3.8774,-3.8712,-3.8887,-3.8913,-3.9084,-3.9144,-3.9175,-3.921,-3.9141,-3.9408,-3.9434,-3.9458,-3.9543,-3.9577,-3.9174,-3.9173,-3.9172,-3.9171,0,-3.8635,-3.8728,-3.8822,-3.8887,-3.8939,-3.9054,-3.9035,-3.9093,-3.9062,-3.9061,-3.9199,-3.9227,-3.9308,-3.9346,-3.9317,-3.9514,-3.9479,-3.9414,-3.9305,-3.9503,-3.9583,-3.9615,-3.9187,-3.9184,-3.9181,-3.9179,0,0,-3.8956,-3.8997,-3.9033,-3.9062,-3.9104,-3.9177,-3.9289,-3.9365,-3.9417,-3.9466,-3.9561,-3.9682,-3.9621,-3.9664,-3.9638,-3.9723,-3.9919,-3.9647,-3.9648,-3.9699,-4.014,-4.0191,-4.023,-3.9883,-3.9889,-3.9894,-4.0137,0,-3.9189,-3.9381,-3.935,-3.9537,-3.9624,-3.9549,-3.9647,-3.9685,-3.9687,-3.9763,-3.9765,-3.9852,-3.9765,-3.979,-3.987,-3.9878,-4.0007,-3.986,-3.9975,-3.9979,-3.9968,-4.0271,-4.0325,-4.0553,-4.0168,-4.0173,-4.0177,0,-3.9488,-3.9546,-3.9742,-3.9771,-3.9806,-3.9895,-3.9963,-4.0035,-4.0078,-4.0073,-4.0121,-4.008,-4.0194,-4.0082,-4.0241,-4.0141,-4.0186,-4.0197,-4.0205,-4.0217,-4.0092,-4.0294,-4.0624,-4.066,-4.0225,-4.0221,-4.0218,0,-3.9705,-3.9833,-3.9966,-3.9993,-4.0031,-4.0095,-4.0114,-4.0149,-4.0198,-4.0258,-4.029,-4.0363,-4.0405,-4.0464,-4.0445,-4.0364,-4.0609,-4.0494,-4.0611,-4.0613,-4.0669,-4.0666,-4.1014,-4.0694,-4.0693,-4.0692,-4.0692,0,-3.9971,-4.0094,-4.0064,-4.0147,-4.0284,-4.0247,-4.0384,-4.0394,-4.0426,-4.0512,-4.0452,-4.0533,-4.0502,-4.0582,-4.0568,-4.0704,-4.0722,-4.0724,-4.0719,-4.0731,-4.0731,-4.0762,-4.0747,-4.0701,-4.0699,-4.0698,-4.0696,0,-4.0238,-4.0223,-4.0364,-4.0387,-4.0396,-4.0496,-4.0517,-4.0596,-4.0592,-4.0701,-4.0724,-4.072,-4.0812,-4.0798,-4.09,-4.0891,-4.1061,-4.1035,-4.1046,-4.1041,-4.116,-4.115,-4.1542,-4.1593,-4.1238,-4.1241,-4.1244,0,-4.041,-4.0503,-4.0535,-4.0587,-4.061,-4.0694,-4.0743,-4.0711,-4.0764,-4.082,-4.0893,-4.0978,-4.1046,-4.1196,-4.1204,-4.1283,-4.1261,-4.1392,-4.1272,-4.1282,-4.1266,-4.1262,-4.1272,-4.1417,-4.1421,-4.1425,-4.1427,0,-4.0717,-4.0705,-4.0776,-4.0846,-4.0905,-4.0959,-4.1007,-4.1053,-4.1025,-4.1089,-4.1181,-4.1233,-4.1337,-4.1424,-4.1497,-4.1519,-4.1471,-4.1465,-4.1496,-4.1511,-4.1514,-4.1517,-4.1114,-4.1457,-4.1454,-4.1451,-4.145,-4.1449,-4.0944,-4.1023,-4.1059,-4.1141,-4.1173,-4.1219,-4.1295,-4.13,-4.1376,-4.1456,-4.1433,-4.1538,-4.158,-4.1673,-4.1703,-4.1786,-4.1738,-4.1784,-4.1796,-4.1808,-4.1823,-4.1498,-4.1799,-4.1799,-4.1798,-4.1797,-4.1796,0,-4.125,-4.1269,-4.1345,-4.1413,-4.1478,-4.1423,-4.1473,-4.1532,-4.1625,-4.1666,-4.1733,-4.184,-4.1924,-4.1938,-4.2019,-4.2084,-4.2064,-4.2106,-4.2103,-4.2109,-4.1861,-4.1826,-4.2121,-4.2121,-4.2121,-4.2121,-4.2121,-4.2121,-4.1418,-4.155,-4.1542,-4.1691,-4.1709,-4.181,-4.1844,-4.1887,-4.192,-4.2042,-4.2111,-4.2118,-4.215,-4.2232,-4.2308,-4.231,-4.2344,-4.2396,-4.239,-4.2159,-4.2126,-4.2096,-4.2063,-4.2403,-4.2404,-4.2632,-4.2634,-4.2636]},{"header":{"parameterUnit":"m.s-1","parameterCategory":1,"la1":30.2991,"la2":30.254,"lo1":-89.0895,"lo2":-89.0444,"dy":0.0017,"dx":0.0017,"nx":28,"ny":28,"refTime":"2025-12-17T09:00:00:Z","depth":0,"parameterNumber":3,"parameterNumberName":"V-component_of_WINDS"},"data":[0,0,0,0,0,0,0,0,0,0,0,0,0,0,0,0,0,0,0,0,0,0,0,0,0,0,0,0,0,0,0,0,0,0,0,0,0,0,0,0,0,0,0,0,0,0,0,0,0,0,0,0,0,0,0,0,0,0,-2.6242,-2.6242,0,-2.6191,-2.6191,-2.619,-2.6104,-2.6102,-2.6101,-2.6099,-2.6049,-2.6049,-2.6049,0,0,0,0,0,0,0,0,0,0,0,0,0,-2.6267,-2.6267,-2.6243,-2.6242,-2.6241,-2.6191,-2.6191,-2.619,-2.6104,-2.6102,-2.61,-2.6098,-2.6049,-2.6049,-2.6049,0,0,0,0,0,0,0,0,0,0,0,0,0,-2.624,-2.6267,-2.6243,-2.6192,-2.6187,-2.6191,-2.6191,-2.619,-2.6105,-2.6102,-2.61,-2.6097,-2.6049,-2.6049,-2.6049,-2.6099,0,0,-2.605,-2.605,0,0,0,0,0,0,0,0,-2.6242,-2.6239,-2.62,-2.6196,-2.619,-2.6151,-2.6181,-2.6159,-2.6105,-2.6136,-2.6099,-2.6096,-2.6085,-2.6082,-2.6078,-2.6096,-2.6094,-2.605,-2.605,-2.605,-2.605,0,0,0,0,0,0,0,-2.6244,-2.6241,-2.6222,-2.62,-2.6194,-2.6173,-2.6166,-2.6176,-2.6125,-2.6133,-2.6127,-2.6122,-2.6082,-2.6078,-2.6076,-2.6093,-2.605,-2.605,-2.605,-2.605,-2.6149,-2.6151,0,0,0,0,0,0,-2.6253,-2.6243,-2.6224,-2.6221,-2.6211,-2.6174,-2.6167,-2.6166,-2.6124,-2.6116,-2.6124,-2.6118,-2.6079,-2.6076,-2.6074,-2.6128,-2.605,-2.605,-2.605,-2.6146,-2.6149,-2.6152,0,0,0,0,0,0,-2.6254,-2.6252,-2.6226,-2.623,-2.6225,-2.6176,-2.6176,-2.6167,-2.6162,-2.6117,-2.6108,-2.6129,-2.6077,-2.6074,-2.6093,-2.6125,-2.605,-2.605,-2.6143,-2.6147,-2.6151,-2.6238,0,0,0,0,0,0,-2.6255,-2.6253,-2.6271,-2.6231,-2.6225,-2.6246,-2.6178,-2.6167,-2.6163,-2.6155,-2.612,-2.6112,-2.6074,-2.6093,-2.6093,-2.6124,-2.6051,-2.614,-2.6145,-2.6149,-2.6232,-2.6244,-2.6255,0,0,0,0,0,-2.6256,-2.6298,-2.6272,-2.6271,-2.6247,-2.6248,-2.6244,-2.62,-2.6166,-2.6184,-2.6155,-2.6113,-2.6122,-2.6095,-2.6095,-2.6127,-2.6138,-2.6144,-2.6149,-2.6227,-2.6242,-2.6255,0,0,0,0,0,0,-2.6344,-2.6292,-2.6263,-2.6294,-2.6276,-2.6233,-2.6254,-2.6217,-2.6209,-2.6202,-2.6148,-2.6141,-2.6167,-2.6149,-2.612,-2.6172,-2.6123,-2.6129,-2.6183,-2.6197,-2.6208,-2.6212,-2.6051,0,0,0,0,0,-2.6367,-2.6372,-2.6326,-2.6358,-2.635,-2.6304,-2.6303,-2.627,-2.6249,-2.6242,-2.6214,-2.6196,-2.6194,-2.6194,-2.6191,-2.6229,-2.622,-2.6251,-2.6262,-2.6272,-2.6277,-2.6295,-2.6308,-2.617,-2.617,-2.617,0,0,-2.6415,-2.6387,-2.6393,-2.6375,-2.6357,-2.6363,-2.6298,-2.6308,-2.6311,-2.6243,-2.6259,-2.6238,-2.6214,-2.6243,-2.6254,-2.6229,-2.6313,-2.6279,-2.6287,-2.6287,-2.6302,-2.6315,-2.6327,-2.6174,-2.6173,-2.6173,0,0,-2.6505,-2.6484,-2.6508,-2.6491,-2.6464,-2.6433,-2.6439,-2.6402,-2.6385,-2.64,-2.6348,-2.6352,-2.6351,-2.6336,-2.6328,-2.6411,-2.6372,-2.6412,-2.6471,-2.6489,-2.65,-2.6509,-2.6538,-2.6549,-2.6417,-2.6417,-2.6418,0,-2.6567,-2.6574,-2.6525,-2.6537,-2.653,-2.6467,-2.6491,-2.6477,-2.6451,-2.6448,-2.6419,-2.6416,-2.6395,-2.6419,-2.6439,-2.6435,-2.644,-2.6415,-2.6502,-2.6511,-2.6519,-2.6546,-2.6557,-2.6422,-2.6422,-2.6421,-2.6421,0,-2.6652,-2.6657,-2.6679,-2.6655,-2.665,-2.6668,-2.6622,-2.6623,-2.6591,-2.6563,-2.6579,-2.6552,-2.6541,-2.6544,-2.6513,-2.6564,-2.6548,-2.6512,-2.6462,-2.6538,-2.6562,-2.6572,-2.6429,-2.6428,-2.6426,-2.6425,0,0,-2.6796,-2.6743,-2.6752,-2.674,-2.6705,-2.6709,-2.6724,-2.6712,-2.6714,-2.6698,-2.6709,-2.6709,-2.6675,-2.6666,-2.6632,-2.6648,-2.6715,-2.661,-2.6608,-2.663,-2.6768,-2.6795,-2.6808,-2.6689,-2.669,-2.6692,-2.6769,0,-2.6878,-2.69,-2.6856,-2.6888,-2.6892,-2.6832,-2.6845,-2.6825,-2.68,-2.6799,-2.677,-2.6771,-2.6726,-2.672,-2.6733,-2.6704,-2.6742,-2.6698,-2.6698,-2.6699,-2.6706,-2.682,-2.685,-2.6924,-2.6779,-2.678,-2.6781,0,-2.6977,-2.6965,-2.6998,-2.696,-2.696,-2.6973,-2.6958,-2.6958,-2.6935,-2.6915,-2.6904,-2.6865,-2.6876,-2.6828,-2.6843,-2.6814,-2.6812,-2.6797,-2.6799,-2.6797,-2.6745,-2.6821,-2.6947,-2.6958,-2.6796,-2.6795,-2.6794,0,-2.7078,-2.707,-2.7088,-2.708,-2.7037,-2.7047,-2.7029,-2.7003,-2.6999,-2.6986,-2.6983,-2.6972,-2.6967,-2.6959,-2.6918,-2.6886,-2.6938,-2.6886,-2.6921,-2.6922,-2.6934,-2.6934,-2.7061,-2.6934,-2.6934,-2.6933,-2.6933,0,-2.7174,-2.7197,-2.7133,-2.7144,-2.7167,-2.7116,-2.714,-2.7117,-2.7094,-2.71,-2.7048,-2.7054,-2.6999,-2.6999,-2.6967,-2.6984,-2.6982,-2.6966,-2.6957,-2.697,-2.6972,-2.6967,-2.6961,-2.6936,-2.6936,-2.6935,-2.6935,0,-2.7291,-2.725,-2.7265,-2.7223,-2.7213,-2.7232,-2.7195,-2.7204,-2.7174,-2.7182,-2.7181,-2.7135,-2.7132,-2.709,-2.7079,-2.7057,-2.7087,-2.7068,-2.7095,-2.7088,-2.7125,-2.7122,-2.7253,-2.7268,-2.7132,-2.7134,-2.7135,0,-2.7355,-2.7371,-2.733,-2.7329,-2.7314,-2.7314,-2.7309,-2.726,-2.7257,-2.723,-2.7242,-2.7235,-2.7227,-2.7226,-2.7191,-2.7182,-2.7163,-2.7209,-2.7161,-2.7174,-2.7163,-2.7162,-2.7163,-2.722,-2.7221,-2.7223,-2.7224,0,-2.7473,-2.7451,-2.7445,-2.7433,-2.7428,-2.7416,-2.74,-2.7403,-2.7348,-2.7347,-2.7344,-2.7337,-2.7325,-2.7319,-2.7303,-2.7285,-2.7246,-2.7239,-2.7247,-2.7261,-2.7275,-2.7267,-2.7122,-2.7237,-2.7235,-2.7234,-2.7234,-2.7233,-2.7564,-2.7575,-2.7547,-2.7543,-2.7526,-2.7512,-2.7518,-2.7488,-2.7484,-2.747,-2.7441,-2.7442,-2.7417,-2.7392,-2.7377,-2.7377,-2.7353,-2.7364,-2.7367,-2.737,-2.7377,-2.7275,-2.7374,-2.7374,-2.7373,-2.7373,-2.7373,0,-2.7679,-2.7658,-2.7654,-2.7633,-2.763,-2.7592,-2.7572,-2.7572,-2.7573,-2.7553,-2.7545,-2.7541,-2.7534,-2.7499,-2.7488,-2.7495,-2.7476,-2.7494,-2.7493,-2.7489,-2.74,-2.7394,-2.7509,-2.7509,-2.7509,-2.7509,-2.7509,-2.7509,-2.7738,-2.7753,-2.7728,-2.7735,-2.7713,-2.7713,-2.7705,-2.7692,-2.7676,-2.7673,-2.7667,-2.7644,-2.7617,-2.7604,-2.7596,-2.7586,-2.7584,-2.7608,-2.7591,-2.7509,-2.7495,-2.7483,-2.7477,-2.7608,-2.7608,-2.7681,-2.7681,-2.7682]}]]